DW5978 Whyalla SA AU current weather conditions

sailwx.info

Wind from 084

Air temperature 13.3° C
Dewpoint 10.7° C

Last reported at 2015-May-24 10:47 UTC.
Time now 2015-May-24 11:23 UTC

Location: S 33°01' E 137°32'.
View on Google Maps.

See reports from other nearby stations

  
Tides and Currents Weather Stations Pressure Air Temp Water Temp Dewpoint Dewpoint Depression Visibility Wind Speed Wind Dir Waves Ship Positions
date/time (UTC)wind fromknots sea level pressurealtimeterstation pressurevisibilityair tempwater tempwave heightnotes
2015-May-24 10:47 084 13.3
2015-May-24 10:32 084 13.3
2015-May-24 10:17 084 13.9
2015-May-24 10:02 084 13.9
2015-May-24 09:47 084 14.4
2015-May-24 09:32 083 0 gusting 1 14.4
2015-May-24 09:17 078 1 gusting 2 14.4
2015-May-24 09:02 072 0 gusting 3 14.4
2015-May-24 08:47 072 1 gusting 2 14.4
2015-May-24 08:32 075 0 gusting 1 14.4
2015-May-24 08:17 092 2 gusting 4 14.4
2015-May-24 08:02 084 0 gusting 2 14.4
2015-May-24 07:47 075 1 gusting 3 15.0
2015-May-24 07:32 061 1 gusting 2 15.0
2015-May-24 07:17 070 15.6
2015-May-24 07:02 098 0 gusting 3 15.6
2015-May-24 06:47 073 1 gusting 2 15.6
2015-May-24 06:32 047 0 gusting 1 15.6
2015-May-24 06:17 044 16.1
2015-May-24 06:02 047 16.1
2015-May-24 05:59 047 16.1
2015-May-24 05:32 145 15.6
2015-May-24 05:17 103 1 gusting 4 15.6
2015-May-24 05:02 086 1 gusting 3 16.1
2015-May-24 04:47 077 1 gusting 3 16.7
2015-May-24 04:32 079 1 gusting 3 16.7
2015-May-24 04:17 153 0 gusting 3 17.2
2015-May-24 04:02 107 0 gusting 3 17.8
2015-May-24 03:47 307 0 gusting 5 18.3
2015-May-24 03:32 314 0 gusting 6 18.9
2015-May-24 03:17 321 0 gusting 3 18.9
2015-May-24 03:02 274 1 gusting 4 17.8
2015-May-24 02:46 249 1 gusting 5 17.8
2015-May-24 02:31 255 1 gusting 4 18.3
2015-May-24 02:16 288 1 gusting 4 17.2
2015-May-24 02:01 276 0 gusting 4 16.7
2015-May-24 01:46 114 0 gusting 2 15.6
2015-May-24 01:31 274 0 gusting 2 15.0
2015-May-24 01:16 274 0 gusting 2 13.9
2015-May-24 01:01 276 0 gusting 1 12.8
2015-May-24 00:46 226 0 gusting 2 11.7
2015-May-24 00:16 300 0 gusting 2 10.6
2015-May-24 00:01 300 0 gusting 2 10.0
2015-May-23 23:46 291 0 gusting 1 9.4
2015-May-23 23:31 290 0 gusting 2 9.4
2015-May-23 23:16 291 0 gusting 2 9.4
2015-May-23 23:01 281 0 gusting 2 8.9
2015-May-23 22:46 282 8.9
2015-May-23 22:31 285 0 gusting 2 7.8
2015-May-23 22:16 264 1 gusting 2 7.2
2015-May-23 22:01 294 0 gusting 1 6.7
2015-May-23 21:46
2015-May-23 21:30
2015-May-23 21:15
2015-May-23 21:00
2015-May-23 20:45
2015-May-23 20:30
2015-May-23 20:15
2015-May-23 20:00
2015-May-23 19:45
2015-May-23 19:30
2015-May-23 19:15
2015-May-23 19:00
2015-May-23 18:45
2015-May-23 18:30
2015-May-23 18:15 291 0 gusting 2 6.1
2015-May-23 18:07 290 1 gusting 2 6.7
2015-May-23 17:45 285 7.2
2015-May-23 17:29 281 7.2
2015-May-23 17:14 280 7.8
2015-May-23 16:59 281 7.8
2015-May-23 16:44 280 7.8
2015-May-23 16:29 278 1 gusting 2 7.8
2015-May-23 16:14 266 0 gusting 2 8.3
2015-May-23 15:59 291 7.2
2015-May-23 15:44 285 8.3
2015-May-23 15:29 285 0 gusting 1 7.8
2015-May-23 15:14 282 0 gusting 1 7.8
2015-May-23 14:59 283 7.8
2015-May-23 14:44 283 7.8
2015-May-23 14:29 283 0 gusting 1 7.2
2015-May-23 14:14 283 7.2
2015-May-23 13:59 283 7.2
2015-May-23 13:44 283 7.8
2015-May-23 13:29 282 7.8
2015-May-23 13:14 283 0 gusting 1 7.8
2015-May-23 12:59 283 7.8
2015-May-23 12:44 070 0 gusting 1 8.3
2015-May-23 12:29 070 10.0
2015-May-23 12:14 071 9.4
2015-May-23 11:59 071 10.0
2015-May-23 11:44 071 10.6
2015-May-23 11:29 070 11.1
2015-May-23 11:14 070 11.7
2015-May-23 10:59 070 12.2
2015-May-23 10:44 070 1 gusting 2 12.2
2015-May-23 10:29 064 1 gusting 3 12.2
2015-May-23 10:14 052 1 gusting 3 11.7
2015-May-23 09:59 049 2 gusting 3 12.2
2015-May-23 09:44 052 2 gusting 3 12.2
2015-May-23 09:29 063 0 gusting 1 12.8
2015-May-23 09:14 066 0 gusting 1 12.8
2015-May-23 08:59 067 0 gusting 2 13.3
2015-May-23 08:44 072 1 gusting 3 13.9
2015-May-23 08:29 082 1 gusting 4 13.9
2015-May-23 08:14 089 0 gusting 4 14.4
2015-May-23 07:59 088 1 gusting 4 15.0
2015-May-23 07:44 103 2 gusting 4 15.6
2015-May-23 07:29 105 1 gusting 4 15.6
2015-May-23 07:14 100 2 gusting 4 15.6
2015-May-23 06:59 105 3 gusting 5 16.1
2015-May-23 06:44 068 2 gusting 6 16.7
2015-May-23 06:29 112 4 gusting 6 16.7
2015-May-23 06:15 082 3 gusting 5 16.7
2015-May-23 05:59 098 3 gusting 6 16.7
2015-May-23 05:44 106 3 gusting 6 16.7
2015-May-23 05:29 103 1 gusting 6 16.7
2015-May-23 05:14 084 3 gusting 6 16.7
2015-May-23 04:59 112 2 gusting 6 16.7
2015-May-23 04:44 097 3 gusting 5 16.7
2015-May-23 04:29 109 1 gusting 6 16.1
2015-May-23 04:14 108 2 gusting 7 16.1
2015-May-23 03:58 111 4 gusting 7 16.1
2015-May-23 03:43 114 4 gusting 7 16.1
2015-May-23 03:28 108 3 gusting 6 16.7
2015-May-23 03:13 063 5 gusting 8 16.1
2015-May-23 02:58 066 4 gusting 6 16.1
2015-May-23 02:43 084 4 gusting 7 16.1
2015-May-23 02:28 095 1 gusting 7 16.1
2015-May-23 02:13 067 2 gusting 6 16.1
2015-May-23 01:58 085 4 gusting 6 16.1
2015-May-23 01:43 072 5 gusting 8 15.6
2015-May-23 01:28 042 2 gusting 7 15.0
2015-May-23 01:13 049 3 gusting 6 14.4
2015-May-23 00:58 079 3 gusting 6 13.9
2015-May-23 00:43 051 4 gusting 7 12.2
2015-May-23 00:28 063 2 gusting 6 11.7
2015-May-23 00:13 294 11.1
2015-May-22 23:58 294 10.0
2015-May-22 23:43 293 9.4
2015-May-22 23:28 293 8.3
2015-May-22 23:13 294 7.8
2015-May-22 22:58 293 7.2
2015-May-22 22:43 294 0 gusting 2 7.2
2015-May-22 22:28 293 6.1
2015-May-22 22:12 293 5.0
2015-May-22 21:57 293 5.0
2015-May-22 21:42
2015-May-22 21:27
2015-May-22 21:12
2015-May-22 20:57
2015-May-22 20:42
2015-May-22 20:27
2015-May-22 20:12
2015-May-22 19:57
2015-May-22 19:42
2015-May-22 19:27
2015-May-22 19:12
2015-May-22 18:57
2015-May-22 18:42
2015-May-22 18:26
2015-May-22 18:11
2015-May-22 17:56 091 7.8
2015-May-22 17:41 091 8.9
2015-May-22 17:26 091 9.4
2015-May-22 17:11 091 0 gusting 2 9.4
2015-May-22 16:56 103 9.4
2015-May-22 16:41 139 8.9
2015-May-22 16:26 153 8.3
2015-May-22 16:11 153 8.3
2015-May-22 15:56 154 8.3
2015-May-22 15:41 154 7.8
2015-May-22 15:26 154 7.8
2015-May-22 15:11 153 7.2
2015-May-22 14:56 154 7.8
2015-May-22 14:41 153 7.8
2015-May-22 14:26 154 7.8
2015-May-22 14:11 154 0 gusting 1 7.8
2015-May-22 13:56 153 8.3
2015-May-22 13:41 153 8.3
2015-May-22 13:26 153 8.9
2015-May-22 13:11 154 11.1
2015-May-22 12:56 154 11.7
2015-May-22 12:41 153 12.2
2015-May-22 12:26 151 0 gusting 4 12.2
2015-May-22 12:11 145 1 gusting 4 12.8
2015-May-22 11:56 125 1 gusting 6 12.8
2015-May-22 11:41 103 3 gusting 6 13.3
2015-May-22 11:26 109 3 gusting 7 13.9
2015-May-22 11:11 146 4 gusting 6 13.9